Le nostre stazioni meteo in Italia

Pubblicità
Il mio iltempo24.it
Lecce, Italia (16332): Temperatura & dewpoint: 01.12.2019 10:00:00 - 07.12.2019 10:00:00 (CET)Lecce, Italia (16332): velocità del vento: 01.12.2019 10:00:00 - 07.12.2019 10:00:00 (CET)Lecce, Italia (16332): direzione del vento: 01.12.2019 10:00:00 - 07.12.2019 10:00:00 (CET)Lecce, Italia (16332): reduced air pressure: 01.12.2019 10:00:00 - 07.12.2019 10:00:00 (CET)Lecce, Italia (16332): visibility: 01.12.2019 10:00:00 - 07.12.2019 10:00:00 (CET)
Data & Tempo tt [°C] td [°C] ff [km/h] ff [kn] dd ppp [hPa] vv [km]
07.12.2019 10:00:00 14,8 14,0 8 4 OSO 1020,8 7
07.12.2019 09:00:00 13,0 13,0 - - - - 3,2
07.12.2019 08:00:00 12,0 11,0 - - - - 0,9
07.12.2019 07:00:00 11,4 10,6 5 3 SO 1019,9 1,2
07.12.2019 06:00:00 12,0 11,0 - - - - 3,0
07.12.2019 05:00:00 12,0 11,0 - - - - 5
07.12.2019 04:00:00 12,4 11,6 5 3 SO 1019,9 7
07.12.2019 03:00:00 13,0 12,0 - - - - 10
07.12.2019 02:00:00 14,0 13,0 - - - - 10
07.12.2019 01:00:00 14,0 13,2 8 4 ONO 1020,2 10
07.12.2019 00:00:00 14,0 14,0 - - - - 10
06.12.2019 23:00:00 15,0 14,0 - - - - 10
06.12.2019 22:00:00 14,8 14,0 5 3 NE 1020,3 10
06.12.2019 21:00:00 15,0 15,0 - - - - 10
06.12.2019 20:00:00 15,0 14,0 - - - - 7
06.12.2019 19:00:00 15,2 14,4 11 6 N 1020,9 3,0
06.12.2019 18:00:00 16,0 15,0 15 8 E - 3,0
06.12.2019 17:00:00 16,0 15,0 13 7 E - 4,0
06.12.2019 16:00:00 16,0 15,2 8 4 ENE 1022,1 5
06.12.2019 15:00:00 16,0 15,0 8 4 E - 7
06.12.2019 14:00:00 16,0 15,0 11 6 SE - 7
06.12.2019 13:00:00 17,2 15,7 9 5 SSE 1023,5 8
06.12.2019 12:00:00 17,0 16,0 9 5 SSE - 8
06.12.2019 11:00:00 17,0 16,0 9 5 S - 8
06.12.2019 10:00:00 16,0 15,2 8 4 SE 1025,0 6
06.12.2019 09:00:00 14,0 13,0 5 3 ESE - 6
06.12.2019 08:00:00 13,0 12,0 0 0 N - 3,2
06.12.2019 07:00:00 13,0 12,2 5 3 E 1024,4 1,2
06.12.2019 06:00:00 13,0 12,0 0 0 N - 7
06.12.2019 05:00:00 13,0 12,0 0 0 N - 10
06.12.2019 04:00:00 13,0 12,2 0 0 N 1024,8 10
06.12.2019 03:00:00 13,0 12,0 0 0 N - 10
06.12.2019 02:00:00 13,0 12,0 11 6 E - 8
06.12.2019 01:00:00 13,0 12,4 11 6 E 1025,0 8
06.12.2019 00:00:00 13,0 13,0 9 5 ENE - 7
05.12.2019 23:00:00 13,0 13,0 9 5 ENE - 7
05.12.2019 22:00:00 12,8 12,3 11 6 E 1025,2 7
05.12.2019 21:00:00 13,0 12,0 11 6 ESE - 7
05.12.2019 20:00:00 12,0 12,0 11 6 E - 7
05.12.2019 19:00:00 12,6 12,1 11 6 E 1024,6 6
05.12.2019 18:00:00 13,0 13,0 8 4 NE - 7
05.12.2019 17:00:00 13,0 12,0 5 3 - - 5
05.12.2019 16:00:00 14,0 13,4 11 6 E 1023,6 8
05.12.2019 15:00:00 13,0 13,0 16 9 E - 7
05.12.2019 14:00:00 15,0 13,0 9 5 ENE - 7
05.12.2019 13:00:00 15,0 12,5 5 3 NE 1023,6 10
05.12.2019 12:00:00 15,0 12,0 9 5 E - 10
05.12.2019 11:00:00 14,0 12,0 5 3 ESE - 10
05.12.2019 10:00:00 13,6 11,7 11 6 E 1023,7 10
05.12.2019 09:00:00 10,0 10,0 0 0 N - 8
05.12.2019 08:00:00 9,0 9,0 2 1 - - 10
05.12.2019 07:00:00 8,0 7,7 4 2 N 1022,5 10
05.12.2019 06:00:00 7,0 7,0 2 1 - - 10
05.12.2019 05:00:00 6,0 6,0 4 2 - - 10
05.12.2019 04:00:00 6,2 6,0 4 2 N 1022,5 10
05.12.2019 03:00:00 6,0 6,0 2 1 - - 10
05.12.2019 02:00:00 6,0 6,0 2 1 - - 10
05.12.2019 01:00:00 5,8 5,7 4 2 SO 1022,1 10
05.12.2019 00:00:00 6,0 6,0 4 2 NNO - 10
04.12.2019 23:00:00 6,0 6,0 5 3 NNO - 10
04.12.2019 22:00:00 6,0 5,9 4 2 ONO 1021,9 10
04.12.2019 21:00:00 6,0 6,0 8 4 OSO - 10
04.12.2019 20:00:00 7,0 6,0 11 6 NO - 10
04.12.2019 19:00:00 7,8 5,3 8 4 NNO 1020,6 10
04.12.2019 18:00:00 - - - - - - -
04.12.2019 17:00:00 - - - - - - -
04.12.2019 16:00:00 12,0 6,3 21 11 N 1020,2 10
04.12.2019 15:00:00 12,0 6,0 24 13 N - 10
04.12.2019 14:00:00 13,0 6,0 28 15 N - 10
04.12.2019 13:00:00 12,4 5,8 31 17 N 1020,2 10
04.12.2019 12:00:00 12,0 6,0 28 15 N - 10
04.12.2019 11:00:00 12,0 6,0 22 12 N - 10
04.12.2019 10:00:00 12,0 7,1 21 11 N 1021,1 10
04.12.2019 09:00:00 11,0 5,0 21 11 NNO - 10
04.12.2019 08:00:00 10,0 6,0 21 11 NNO - 10
04.12.2019 07:00:00 10,4 6,4 21 11 NNO 1020,1 10
04.12.2019 06:00:00 11,0 8,0 18 10 NNO - 10
04.12.2019 05:00:00 11,0 8,0 15 8 N - 10
04.12.2019 04:00:00 12,0 7,7 15 8 N 1019,4 10
04.12.2019 03:00:00 13,0 9,0 21 11 N - 10
04.12.2019 02:00:00 13,0 9,0 16 9 NNO - 10
04.12.2019 01:00:00 13,4 9,5 21 11 NNO 1019,0 10
04.12.2019 00:00:00 14,0 9,0 24 13 N - 10
03.12.2019 23:00:00 14,0 10,0 18 10 N - 10
03.12.2019 22:00:00 14,0 11,0 18 10 N 1018,6 10
03.12.2019 21:00:00 13,0 11,0 21 11 N - 10
03.12.2019 20:00:00 14,0 11,0 18 10 N - 10
03.12.2019 19:00:00 14,2 12,2 16 9 N 1018,1 10
03.12.2019 18:00:00 14,0 13,0 24 13 NNO - 10
03.12.2019 17:00:00 15,0 13,0 24 13 N - 10
03.12.2019 16:00:00 16,0 13,7 24 13 NNO 1017,0 10
03.12.2019 15:00:00 17,0 14,0 18 10 N - 10
03.12.2019 14:00:00 17,0 15,0 21 11 N - 10
03.12.2019 13:00:00 16,8 14,4 22 12 N 1017,2 10
03.12.2019 12:00:00 18,0 15,0 11 6 N - 10
03.12.2019 11:00:00 18,0 14,0 11 6 N - 10
03.12.2019 10:00:00 15,0 14,4 8 4 N 1017,9 8
03.12.2019 09:00:00 15,0 14,0 5 3 N - 3,5
03.12.2019 08:00:00 11,0 10,0 2 1 - - 0,2
03.12.2019 07:00:00 11,0 10,5 4 2 N 1017,2 0,2
03.12.2019 06:00:00 12,0 12,0 4 2 - - 0,3
03.12.2019 05:00:00 13,0 13,0 8 4 OSO - 10
03.12.2019 04:00:00 14,2 13,6 9 5 SO 1016,9 10
03.12.2019 03:00:00 15,0 15,0 9 5 SO - 10
03.12.2019 02:00:00 16,0 16,0 18 10 S - 10
03.12.2019 01:00:00 16,0 15,7 11 6 SSO 1017,5 10
03.12.2019 00:00:00 16,0 15,0 13 7 SO - 10
02.12.2019 23:00:00 15,0 15,0 11 6 S - 10
02.12.2019 22:00:00 16,0 15,2 13 7 S 1018,3 10
02.12.2019 21:00:00 16,0 15,0 13 7 SSO - 10
02.12.2019 20:00:00 16,0 15,0 15 8 SSE - 10
02.12.2019 19:00:00 16,2 15,1 15 8 SSE 1018,2 10
02.12.2019 18:00:00 16,0 15,0 13 7 SSE - 10
02.12.2019 17:00:00 16,0 14,0 18 10 S - 10
02.12.2019 16:00:00 17,6 14,7 22 12 S 1018,6 10
02.12.2019 15:00:00 18,0 14,0 26 14 S - 10
02.12.2019 14:00:00 18,0 13,0 28 15 SSE - 10
02.12.2019 13:00:00 17,6 13,3 24 13 S 1019,6 10
02.12.2019 12:00:00 18,0 13,0 28 15 S - 10
02.12.2019 11:00:00 17,0 12,0 26 14 S - 10
02.12.2019 10:00:00 15,8 12,2 22 12 SSE 1020,7 10
02.12.2019 09:00:00 14,0 12,0 16 9 SSE - 10
02.12.2019 08:00:00 13,0 11,0 16 9 SE - 10
02.12.2019 07:00:00 12,8 11,0 13 7 SSE 1021,0 10
02.12.2019 06:00:00 12,0 10,0 15 8 SE - 10
02.12.2019 05:00:00 10,0 9,0 11 6 SE - 10
02.12.2019 04:00:00 8,8 8,0 9 5 SE 1021,4 10
02.12.2019 03:00:00 8,0 8,0 11 6 SE - 10
02.12.2019 02:00:00 7,0 7,0 8 4 SE - 10
02.12.2019 01:00:00 7,2 6,8 9 5 SE 1022,3 10
02.12.2019 00:00:00 7,0 7,0 8 4 ESE - 10
01.12.2019 23:00:00 7,0 7,0 0 0 N - 10
01.12.2019 22:00:00 7,6 7,3 8 4 SE 1022,8 10
01.12.2019 21:00:00 7,0 7,0 8 4 SE - 10
01.12.2019 20:00:00 8,0 7,0 5 3 SSE - 10
01.12.2019 19:00:00 9,0 7,9 4 2 N 1022,4 10
01.12.2019 18:00:00 11,0 9,0 5 3 - - 10
01.12.2019 17:00:00 13,0 9,0 8 4 ENE - 10
01.12.2019 16:00:00 15,2 8,7 5 3 NE 1022,2 10
01.12.2019 15:00:00 16,0 9,0 9 5 NNE - 10
01.12.2019 14:00:00 16,0 9,0 9 5 NE - 10
01.12.2019 13:00:00 16,0 9,0 11 6 NNE 1022,3 10
01.12.2019 12:00:00 16,0 9,0 9 5 NNE - 10
01.12.2019 11:00:00 15,0 9,0 8 4 NE - 10
01.12.2019 10:00:00 12,0 11,5 4 2 N 1023,0 10

tt = Temperatura
td = dewpoint
ff = velocità del vento
dd = direzione del vento
ppp = reduced air pressure
vv = visibility

Stazioni seguenti

WeatherPro
AMSI
MeteoEarth